Location: Ariel
(45.9570°N, 122.5700°W)
Time: 22:58:49
(UTC-07:00)

Altair - Pass Details

Date: 25 July 2019
Orbit: 1501 x 1683 km, 47.2° (Epoch: 19 August)

Event Time Altitude Azimuth Distance (km) Brightness Sun altitude
Rises 11:39:11 0° 225° (SW) 4,669 10.0 56.9°
Reaches altitude 10° 11:42:18 10° 221° (SW) 3,673 9.7 57.2°
Maximum altitude 11:51:11 56° 147° (SSE) 1,744 11.1 58.3°
Drops below altitude 10° 12:00:02 10° 72° (ENE) 3,663 9.8 59.3°
Sets 12:03:08 0° 69° (ENE) 4,656 10.1 59.6°
